Location: Melbourne
(37.8170°S, 144.9670°E)
Time: 02:12:31
(UTC+11:00)

deb Explorer IX - All Passes

Search period start: 14 February 2016 00:00
Search period end: 24 February 2016 00:00
Orbit: 544 x 1141 km, 38.8° (Epoch: 10 February)

Date Brightness Start Highest point End Pass type
(mag) Time Alt. Az. Time Alt. Az. Time Alt. Az.
14 Feb - 01:05:25 10° WNW 01:08:05 13° NW 01:10:35 10° NNW visible
14 Feb - 15:48:29 10° N 15:53:58 23° NE 15:59:36 10° E daylight
14 Feb - 17:33:50 10° NW 17:41:11 60° NNE 17:48:30 10° ESE daylight
14 Feb - 19:21:33 10° W 19:29:12 86° S 19:36:20 10° E daylight
14 Feb - 21:09:54 10° W 21:17:23 89° N 21:23:58 10° ENE visible
14 Feb - 22:58:20 10° W 23:04:58 46° NNW 23:10:41 10° NE visible
15 Feb - 00:49:05 10° WNW 00:51:25 12° NW 00:53:38 10° NNW visible
15 Feb - 15:31:37 10° NNW 15:37:14 25° NE 15:43:04 10° E daylight
15 Feb - 17:17:08 10° NW 17:24:29 63° NNE 17:31:54 10° ESE daylight
15 Feb - 19:04:53 10° W 19:12:32 85° S 19:19:47 10° E daylight
15 Feb - 20:53:12 10° W 21:00:45 87° N 21:07:28 10° ENE visible
15 Feb - 22:41:38 10° W 22:48:19 43° NNW 22:54:07 10° NE visible
16 Feb - 00:32:51 10° WNW 00:34:45 11° NW 00:36:35 10° NNW visible
16 Feb - 15:14:47 10° NNW 15:20:30 26° NE 15:26:31 10° E daylight
16 Feb - 17:00:28 10° WNW 17:07:47 66° NNE 17:15:16 10° ESE daylight
16 Feb - 18:48:14 10° W 18:55:52 84° S 19:03:13 10° E daylight
16 Feb - 20:36:30 10° W 20:44:05 85° NNW 20:50:57 10° ENE visible
16 Feb - 22:24:56 10° W 22:31:39 41° NNW 22:37:32 10° NE visible
17 Feb - 00:16:50 10° WNW 00:18:04 11° NW 00:19:17 10° NW visible
17 Feb - 14:58:00 10° NNW 15:03:46 28° NE 15:09:55 10° E daylight
17 Feb - 16:43:49 10° WNW 16:51:05 68° NNE 16:58:37 10° ESE daylight
17 Feb - 18:31:35 10° W 18:39:12 84° S 18:46:38 10° E daylight
17 Feb - 20:19:48 10° W 20:27:25 83° NNW 20:34:24 10° ENE daylight
17 Feb - 22:08:16 10° W 22:14:58 39° NNW 22:20:55 10° NE visible
18 Feb - 14:41:15 10° NNW 14:47:03 30° NE 14:53:19 10° E daylight
18 Feb - 16:27:11 10° WNW 16:34:23 71° NNE 16:41:58 10° ESE daylight
18 Feb - 18:14:57 10° W 18:22:32 83° S 18:30:02 10° E daylight
18 Feb - 20:03:07 10° WSW 20:10:45 81° NNW 20:17:50 10° ENE daylight
18 Feb - 21:51:35 10° W 21:58:17 37° NNW 22:04:17 10° NNE visible
19 Feb - 14:24:31 10° NNW 14:30:20 31° NE 14:36:41 10° E daylight
19 Feb - 16:10:35 10° WNW 16:17:42 74° NNE 16:25:18 10° ESE daylight
19 Feb - 17:58:20 10° W 18:05:52 83° S 18:13:25 10° E daylight
19 Feb - 19:46:27 10° WSW 19:54:05 78° NNW 20:01:16 10° ENE daylight
19 Feb - 21:34:55 10° W 21:41:34 35° NW 21:47:37 10° NNE visible
20 Feb - 14:07:50 10° NNW 14:13:37 33° NE 14:20:02 10° E daylight
20 Feb - 15:54:00 10° WNW 16:01:01 76° NNE 16:08:37 10° ESE daylight
20 Feb - 17:41:44 10° W 17:49:12 83° S 17:56:48 10° E daylight
20 Feb - 19:29:47 10° WSW 19:37:23 76° NNW 19:44:39 10° ENE daylight
20 Feb - 21:18:17 10° W 21:24:51 34° NW 21:30:55 10° NNE visible
21 Feb - 13:51:10 10° NNW 13:56:55 35° NE 14:03:23 10° E daylight
21 Feb - 15:37:26 10° WNW 15:44:20 79° NNE 15:51:56 10° ESE daylight
21 Feb - 17:25:08 10° W 17:32:31 83° S 17:40:10 10° E daylight
21 Feb - 19:13:08 10° WSW 19:20:42 73° NNW 19:28:01 10° ENE daylight
21 Feb - 21:01:39 10° W 21:08:07 32° NW 21:14:12 10° NNE visible
22 Feb - 13:34:32 10° NNW 13:40:14 37° NNE 13:46:42 10° E daylight
22 Feb - 15:20:53 10° WNW 15:27:40 81° NNE 15:35:14 10° ESE daylight
22 Feb - 17:08:33 10° W 17:15:51 83° S 17:23:30 10° E daylight
22 Feb - 18:56:29 10° WSW 19:04:00 71° NNW 19:11:23 10° ENE daylight
22 Feb - 20:45:02 10° W 20:51:23 30° NW 20:57:25 10° NNE visible
23 Feb - 13:17:56 10° NW 13:23:33 39° NNE 13:30:00 10° E daylight
23 Feb - 15:04:20 10° WNW 15:11:00 83° NNE 15:18:31 10° E daylight
23 Feb - 16:51:59 10° W 16:59:11 84° S 17:06:50 10° E daylight
23 Feb - 18:39:51 10° WSW 18:47:17 68° NNW 18:54:42 10° ENE daylight
23 Feb - 20:28:27 10° W 20:34:39 28° NW 20:40:37 10° NNE visible
